QPF
0.12 0.10 0.10 0.13 0.10 0.08 0.11 0.10 0.06 0.05 0.05 0.04 0.04 0.03 0.03 0.04 0.05 0.04 0.03 0.06 0.08 0.12 0.15 0.12 0.10 0.09 0.08 0.06 0.07 0.07 0.06 0.06 0.04 0.04 0.03 0.03 0.03 0.03 0.02 0.03 0.03 0.03 0.03
0.11 0.10 0.10 0.10 0.08 0.06 0.07 0.06 0.04 0.05 0.04 0.04 0.03 0.04 0.04 0.04 0.05 0.05 0.04 0.05 0.07 0.11 0.11 0.09 0.07 0.08 0.09 0.07 0.07 0.07 0.06 0.05 0.04 0.03 0.02 0.02 0.02 0.02 0.02 0.03 0.03 0.03 0.05
0.11 0.13 0.10 0.08 0.06 0.04 0.04 0.05 0.04 0.05 0.05 0.04 0.03 0.04 0.05 0.06 0.06 0.06 0.05 0.05 0.07 0.07 0.07 0.07 0.07 0.09 0.09 0.07 0.07 0.07 0.07 0.05 0.04 0.03 0.02 0.02 0.02 0.02 0.02 0.03 0.03 0.05 0.05
0.12 0.15 0.08 0.06 0.05 0.03 0.04 0.05 0.05 0.05 0.05 0.05 0.04 0.04 0.06 0.05 0.04 0.05 0.05 0.05 0.08 0.08 0.06 0.07 0.06 0.06 0.08 0.08 0.09 0.10 0.09 0.06 0.06 0.05 0.04 0.04 0.03 0.03 0.03 0.03 0.04 0.05 0.05
0.14 0.14 0.07 0.05 0.05 0.06 0.05 0.05 0.07 0.05 0.05 0.05 0.05 0.05 0.05 0.03 0.04 0.05 0.06 0.08 0.12 0.11 0.08 0.06 0.04 0.05 0.06 0.07 0.10 0.11 0.11 0.10 0.09 0.08 0.06 0.05 0.05 0.04 0.05 0.06 0.06 0.05 0.04
0.13 0.15 0.10 0.07 0.07 0.08 0.06 0.04 0.05 0.06 0.04 0.04 0.05 0.06 0.06 0.04 0.04 0.05 0.06 0.08 0.10 0.09 0.08 0.06 0.03 0.04 0.05 0.06 0.08 0.09 0.12 0.13 0.11 0.10 0.10 0.09 0.09 0.08 0.07 0.06 0.07 0.06 0.05
0.12 0.16 0.14 0.11 0.07 0.05 0.05 0.05 0.05 0.05 0.04 0.04 0.04 0.04 0.04 0.04 0.03 0.04 0.06 0.07 0.08 0.07 0.06 0.05 0.04 0.03 0.03 0.03 0.05 0.06 0.08 0.11 0.13 0.13 0.13 0.11 0.10 0.07 0.05 0.03 0.05 0.06 0.06
0.11 0.15 0.13 0.12 0.08 0.05 0.05 0.06 0.06 0.04 0.04 0.07 0.06 0.05 0.04 0.04 0.04 0.04 0.05 0.06 0.07 0.06 0.06 0.04 0.02 0.01 0.01 0.02 0.03 0.04 0.05 0.08 0.13 0.14 0.11 0.10 0.08 0.06 0.04 0.03 0.04 0.04 0.06
0.07 0.14 0.17 0.17 0.12 0.08 0.07 0.07 0.05 0.04 0.04 0.06 0.07 0.06 0.04 0.03 0.05 0.05 0.04 0.05 0.06 0.05 0.05 0.04 0.04 0.03 0.02 0.03 0.04 0.05 0.06 0.05 0.07 0.11 0.12 0.10 0.08 0.06 0.05 0.04 0.05 0.04 0.04
0.03 0.05 0.09 0.13 0.16 0.13 0.10 0.08 0.07 0.05 0.05 0.05 0.05 0.06 0.06 0.05 0.04 0.05 0.06 0.06 0.05 0.05 0.05 0.05 0.06 0.04 0.03 0.06 0.05 0.04 0.03 0.02 0.03 0.06 0.09 0.09 0.08 0.06 0.06 0.05 0.05 0.04 0.04
0.03 0.03 0.04 0.06 0.09 0.13 0.14 0.14 0.12 0.09 0.07 0.05 0.04 0.05 0.07 0.06 0.04 0.03 0.03 0.04 0.04 0.04 0.03 0.03 0.03 0.04 0.05 0.06 0.04 0.04 0.02 0.02 0.02 0.02 0.04 0.06 0.07 0.07 0.07 0.06 0.07 0.07 0.07
0.05 0.04 0.05 0.05 0.07 0.09 0.12 0.14 0.15 0.13 0.10 0.07 0.05 0.05 0.07 0.07 0.05 0.05 0.03 0.02 0.02 0.03 0.03 0.03 0.03 0.03 0.04 0.03 0.02 0.03 0.03 0.03 0.03 0.03 0.03 0.03 0.04 0.05 0.07 0.07 0.08 0.10 0.10
0.03 0.04 0.05 0.04 0.05 0.06 0.07 0.09 0.11 0.11 0.10 0.09 0.07 0.07 0.06 0.05 0.06 0.06 0.04 0.02 0.02 0.02 0.02 0.02 0.02 0.01 0.02 0.02 0.02 0.03 0.03 0.03 0.04 0.05 0.05 0.04 0.05 0.06 0.06 0.06 0.06 0.08 0.09
0.01 0.02 0.04 0.05 0.05 0.05 0.06 0.07 0.07 0.08 0.09 0.08 0.07 0.06 0.06 0.05 0.07 0.06 0.04 0.03 0.02 0.01 0.01 0.01 0.01 0.01 0.01 0.02 0.02 0.03 0.02 0.03 0.03 0.03 0.04 0.03 0.04 0.05 0.05 0.05 0.04 0.05 0.05
0.01 0.01 0.03 0.04 0.03 0.04 0.05 0.07 0.07 0.06 0.07 0.07 0.08 0.08 0.07 0.08 0.08 0.06 0.05 0.04 0.03 0.02 0.01 0.01 0.01 0.01 0.01 0.01 0.01 0.02 0.02 0.02 0.03 0.03 0.03 0.03 0.02 0.03 0.03 0.04 0.03 0.03 0.04
0.01 0.01 0.02 0.03 0.03 0.03 0.05 0.05 0.05 0.05 0.05 0.06 0.09 0.10 0.09 0.08 0.07 0.07 0.06 0.05 0.04 0.03 0.02 0.02 0.02 0.01 0.01 0.01 0.02 0.01 0.02 0.03 0.02 0.03 0.03 0.03 0.03 0.03 0.03 0.03 0.03 0.04 0.04
0.03 0.02 0.02 0.03 0.03 0.03 0.03 0.03 0.03 0.04 0.03 0.03 0.03 0.04 0.03 0.04 0.04 0.04 0.05 0.05 0.05 0.04 0.02 0.02 0.02 0.02 0.02 0.03 0.04 0.04 0.03 0.03 0.02 0.02 0.02 0.02 0.03 0.03 0.02 0.02 0.02 0.03 0.03
0.02 0.02 0.03 0.03 0.02 0.02 0.02 0.01 0.01 0.02 0.02 0.02 0.02 0.03 0.04 0.04 0.03 0.03 0.02 0.02 0.03 0.02 0.02 0.02 0.03 0.04 0.04 0.05 0.05 0.05 0.05 0.04 0.03 0.03 0.02 0.03 0.03 0.03 0.03 0.03 0.03 0.03 0.03
0.04 0.04 0.04 0.03 0.03 0.02 0.02 0.02 0.02 0.01 0.01 0.01 0.02 0.02 0.03 0.04 0.03 0.03 0.02 0.02 0.02 0.02 0.02 0.02 0.03 0.03 0.02 0.03 0.03 0.03 0.03 0.03 0.03 0.03 0.03 0.03 0.03 0.03 0.03 0.03 0.03 0.03 0.04
0.03 0.04 0.05 0.04 0.03 0.03 0.02 0.02 0.02 0.01 0.01 0.01 0.01 0.01 0.02 0.03 0.04 0.03 0.03 0.03 0.03 0.02 0.02 0.03 0.03 0.04 0.04 0.03 0.03 0.03 0.03 0.02 0.02 0.02 0.03 0.03 0.03 0.03 0.04 0.03 0.04 0.05 0.05
0.04 0.04 0.04 0.04 0.04 0.03 0.03 0.03 0.02 0.02 0.01 0.01 0.01 0.01 0.02 0.03 0.02 0.02 0.03 0.03 0.04 0.05 0.05 0.05 0.06 0.06 0.05 0.04 0.03 0.02 0.02 0.02 0.02 0.02 0.02 0.02 0.02 0.03 0.04 0.04 0.04 0.04 0.05
0.03 0.04 0.05 0.05 0.04 0.03 0.03 0.03 0.03 0.01 0.01 0.01 0.01 0.01 0.02 0.02 0.02 0.02 0.02 0.03 0.04 0.06 0.08 0.08 0.07 0.07 0.06 0.06 0.05 0.04 0.03 0.03 0.04 0.03 0.03 0.02 0.02 0.02 0.03 0.03 0.04 0.04 0.04
0.02 0.03 0.04 0.04 0.04 0.03 0.03 0.02 0.02 0.02 0.02 0.01 0.01 0.01 0.01 0.01 0.01 0.01 0.01 0.02 0.04 0.06 0.08 0.09 0.09 0.09 0.08 0.08 0.08 0.06 0.04 0.03 0.04 0.03 0.03 0.03 0.04 0.03 0.03 0.03 0.03 0.04 0.03
0.04 0.04 0.05 0.05 0.05 0.04 0.03 0.03 0.04 0.04 0.03 0.02 0.02 0.01 0.01 0.01 0.01 0.02 0.02 0.02 0.03 0.05 0.07 0.08 0.08 0.09 0.10 0.11 0.11 0.09 0.06 0.05 0.05 0.06 0.05 0.05 0.05 0.04 0.04 0.03 0.03 0.04 0.04
0.08 0.08 0.08 0.09 0.09 0.09 0.08 0.06 0.06 0.05 0.04 0.03 0.03 0.03 0.03 0.02 0.03 0.05 0.04 0.02 0.02 0.03 0.04 0.06 0.08 0.08 0.09 0.09 0.11 0.10 0.08 0.07 0.07 0.09 0.08 0.08 0.07 0.06 0.05 0.05 0.06 0.06 0.05
0.13 0.16 0.17 0.17 0.16 0.15 0.14 0.13 0.12 0.09 0.06 0.05 0.04 0.03 0.03 0.03 0.02 0.03 0.03 0.03 0.02 0.02 0.03 0.04 0.05 0.06 0.07 0.08 0.08 0.08 0.07 0.08 0.07 0.09 0.10 0.11 0.11 0.10 0.11 0.10 0.10 0.10 0.09
MSLP
1013.22 1013.36 1013.45 1013.54 1013.63 1013.75 1013.90 1014.07 1014.25 1014.41 1014.53 1014.61 1014.66 1014.69 1014.73 1014.81 1014.94 1015.13 1015.38 1015.67 1015.98 1016.30 1016.60 1016.88 1017.13 1017.36 1017.57 1017.77 1017.97 1018.16 1018.34 1018.52 1018.71 1018.90 1019.10 1019.30 1019.51 1019.71 1019.89 1020.05 1020.17 1020.26 1020.32
1013.40 1013.55 1013.65 1013.74 1013.82 1013.92 1014.04 1014.18 1014.33 1014.47 1014.58 1014.67 1014.73 1014.78 1014.82 1014.89 1014.99 1015.14 1015.34 1015.58 1015.86 1016.15 1016.44 1016.73 1017.00 1017.25 1017.47 1017.67 1017.85 1018.02 1018.17 1018.32 1018.48 1018.64 1018.82 1019.01 1019.20 1019.39 1019.56 1019.70 1019.80 1019.88 1019.94
1013.45 1013.63 1013.77 1013.89 1014.00 1014.10 1014.22 1014.34 1014.48 1014.61 1014.72 1014.82 1014.90 1014.96 1015.01 1015.07 1015.15 1015.26 1015.41 1015.59 1015.82 1016.07 1016.34 1016.61 1016.88 1017.14 1017.37 1017.57 1017.75 1017.90 1018.03 1018.16 1018.28 1018.42 1018.57 1018.73 1018.89 1019.05 1019.20 1019.31 1019.40 1019.46 1019.51
1013.35 1013.58 1013.79 1013.97 1014.13 1014.27 1014.41 1014.54 1014.67 1014.80 1014.93 1015.04 1015.14 1015.23 1015.31 1015.38 1015.45 1015.53 1015.63 1015.77 1015.93 1016.13 1016.35 1016.60 1016.85 1017.10 1017.33 1017.53 1017.71 1017.85 1017.97 1018.07 1018.17 1018.28 1018.40 1018.53 1018.65 1018.77 1018.88 1018.96 1019.02 1019.05 1019.09
1013.10 1013.39 1013.68 1013.94 1014.17 1014.38 1014.56 1014.72 1014.86 1015.01 1015.15 1015.29 1015.43 1015.56 1015.68 1015.78 1015.88 1015.96 1016.04 1016.13 1016.25 1016.39 1016.56 1016.76 1016.98 1017.21 1017.42 1017.62 1017.79 1017.92 1018.03 1018.12 1018.20 1018.28 1018.37 1018.45 1018.54 1018.61 1018.67 1018.71 1018.72 1018.73 1018.72
1012.76 1013.10 1013.45 1013.80 1014.12 1014.39 1014.62 1014.81 1014.99 1015.15 1015.32 1015.50 1015.69 1015.89 1016.08 1016.25 1016.40 1016.51 1016.61 1016.69 1016.77 1016.86 1016.99 1017.13 1017.31 1017.49 1017.68 1017.86 1018.01 1018.14 1018.24 1018.32 1018.38 1018.44 1018.49 1018.54 1018.58 1018.60 1018.61 1018.60 1018.57 1018.53 1018.49
1012.38 1012.75 1013.16 1013.57 1013.96 1014.30 1014.58 1014.81 1015.01 1015.20 1015.40 1015.63 1015.89 1016.16 1016.44 1016.71 1016.94 1017.12 1017.26 1017.37 1017.44 1017.51 1017.60 1017.69 1017.82 1017.96 1018.11 1018.25 1018.38 1018.49 1018.58 1018.64 1018.69 1018.72 1018.75 1018.76 1018.77 1018.75 1018.72 1018.67 1018.60 1018.52 1018.44
1012.05 1012.42 1012.85 1013.31 1013.74 1014.12 1014.43 1014.69 1014.91 1015.12 1015.36 1015.63 1015.96 1016.32 1016.70 1017.08 1017.42 1017.70 1017.92 1018.07 1018.18 1018.25 1018.31 1018.37 1018.45 1018.54 1018.64 1018.75 1018.85 1018.93 1018.99 1019.04 1019.07 1019.09 1019.09 1019.09 1019.06 1019.02 1018.97 1018.89 1018.79 1018.68 1018.56
1011.82 1012.16 1012.59 1013.05 1013.50 1013.89 1014.22 1014.49 1014.71 1014.94 1015.19 1015.50 1015.89 1016.33 1016.81 1017.29 1017.75 1018.14 1018.45 1018.69 1018.85 1018.94 1019.01 1019.05 1019.09 1019.14 1019.20 1019.26 1019.32 1019.37 1019.41 1019.43 1019.45 1019.45 1019.45 1019.43 1019.40 1019.36 1019.29 1019.20 1019.09 1018.97 1018.84
1011.71 1012.02 1012.41 1012.85 1013.29 1013.67 1013.99 1014.24 1014.46 1014.68 1014.93 1015.26 1015.68 1016.17 1016.72 1017.30 1017.85 1018.35 1018.77 1019.09 1019.32 1019.47 1019.56 1019.61 1019.65 1019.67 1019.69 1019.71 1019.73 1019.74 1019.75 1019.75 1019.75 1019.75 1019.74 1019.73 1019.71 1019.68 1019.63 1019.55 1019.45 1019.33 1019.20
1011.70 1011.96 1012.32 1012.72 1013.12 1013.48 1013.77 1014.00 1014.20 1014.40 1014.64 1014.96 1015.38 1015.89 1016.48 1017.10 1017.73 1018.31 1018.81 1019.22 1019.53 1019.75 1019.89 1019.97 1020.02 1020.04 1020.04 1020.03 1020.02 1020.00 1019.98 1019.96 1019.94 1019.93 1019.93 1019.94 1019.94 1019.93 1019.90 1019.85 1019.78 1019.69 1019.57
1011.72 1011.94 1012.26 1012.63 1013.00 1013.33 1013.59 1013.80 1013.97 1014.14 1014.36 1014.65 1015.04 1015.53 1016.11 1016.75 1017.40 1018.02 1018.58 1019.06 1019.45 1019.74 1019.95 1020.09 1020.18 1020.22 1020.23 1020.21 1020.18 1020.13 1020.09 1020.04 1020.02 1020.01 1020.01 1020.03 1020.06 1020.08 1020.08 1020.07 1020.03 1019.96 1019.86
1011.69 1011.90 1012.20 1012.55 1012.89 1013.20 1013.45 1013.65 1013.81 1013.96 1014.14 1014.39 1014.73 1015.18 1015.71 1016.31 1016.94 1017.57 1018.16 1018.69 1019.14 1019.51 1019.80 1020.01 1020.16 1020.25 1020.29 1020.28 1020.25 1020.19 1020.12 1020.06 1020.02 1020.00 1020.01 1020.04 1020.08 1020.13 1020.17 1020.18 1020.16 1020.11 1020.04
1011.55 1011.78 1012.08 1012.42 1012.76 1013.07 1013.34 1013.55 1013.71 1013.86 1014.02 1014.23 1014.52 1014.90 1015.36 1015.89 1016.47 1017.06 1017.65 1018.20 1018.69 1019.13 1019.50 1019.80 1020.03 1020.19 1020.27 1020.30 1020.28 1020.22 1020.14 1020.07 1020.01 1019.98 1019.98 1020.01 1020.06 1020.12 1020.17 1020.19 1020.18 1020.14 1020.07
1011.27 1011.53 1011.84 1012.20 1012.57 1012.91 1013.21 1013.46 1013.66 1013.83 1014.00 1014.20 1014.45 1014.76 1015.14 1015.59 1016.09 1016.62 1017.17 1017.72 1018.25 1018.74 1019.19 1019.57 1019.89 1020.12 1020.27 1020.34 1020.35 1020.30 1020.22 1020.13 1020.06 1020.01 1019.99 1020.01 1020.05 1020.09 1020.13 1020.14 1020.13 1020.07 1019.99
1010.86 1011.15 1011.49 1011.87 1012.28 1012.67 1013.04 1013.36 1013.63 1013.86 1014.07 1014.28 1014.51 1014.78 1015.09 1015.46 1015.88 1016.35 1016.85 1017.38 1017.91 1018.44 1018.95 1019.41 1019.80 1020.11 1020.33 1020.46 1020.50 1020.47 1020.39 1020.29 1020.19 1020.11 1020.07 1020.06 1020.07 1020.09 1020.10 1020.08 1020.03 1019.95 1019.83
1010.37 1010.66 1011.02 1011.43 1011.87 1012.33 1012.78 1013.19 1013.57 1013.89 1014.18 1014.44 1014.69 1014.95 1015.22 1015.53 1015.88 1016.28 1016.73 1017.23 1017.75 1018.30 1018.84 1019.36 1019.82 1020.20 1020.48 1020.65 1020.73 1020.72 1020.64 1020.53 1020.41 1020.30 1020.23 1020.18 1020.15 1020.13 1020.10 1020.04 1019.95 1019.83 1019.67
1009.83 1010.11 1010.46 1010.88 1011.36 1011.88 1012.41 1012.93 1013.42 1013.87 1014.27 1014.61 1014.92 1015.21 1015.48 1015.76 1016.06 1016.41 1016.81 1017.26 1017.77 1018.31 1018.87 1019.41 1019.92 1020.34 1020.67 1020.89 1020.99 1021.00 1020.93 1020.81 1020.67 1020.54 1020.43 1020.34 1020.27 1020.20 1020.13 1020.04 1019.91 1019.74 1019.55
1009.29 1009.52 1009.84 1010.25 1010.74 1011.31 1011.92 1012.54 1013.16 1013.73 1014.25 1014.72 1015.11 1015.46 1015.77 1016.05 1016.34 1016.66 1017.02 1017.43 1017.90 1018.43 1018.97 1019.53 1020.04 1020.49 1020.85 1021.09 1021.22 1021.25 1021.18 1021.06 1020.91 1020.76 1020.62 1020.49 1020.39 1020.29 1020.19 1020.06 1019.90 1019.71 1019.49
1008.75 1008.90 1009.17 1009.55 1010.04 1010.63 1011.30 1012.01 1012.74 1013.44 1014.09 1014.68 1015.19 1015.63 1016.00 1016.32 1016.62 1016.93 1017.26 1017.65 1018.08 1018.57 1019.09 1019.62 1020.13 1020.58 1020.94 1021.20 1021.35 1021.39 1021.34 1021.22 1021.07 1020.90 1020.74 1020.60 1020.48 1020.36 1020.24 1020.09 1019.92 1019.72 1019.48
1008.22 1008.29 1008.48 1008.81 1009.28 1009.88 1010.58 1011.35 1012.17 1012.98 1013.75 1014.47 1015.10 1015.64 1016.10 1016.49 1016.82 1017.14 1017.47 1017.82 1018.22 1018.66 1019.14 1019.63 1020.11 1020.54 1020.90 1021.17 1021.33 1021.38 1021.34 1021.24 1021.09 1020.93 1020.77 1020.63 1020.50 1020.37 1020.24 1020.10 1019.93 1019.73 1019.50
1007.70 1007.67 1007.79 1008.06 1008.50 1009.08 1009.80 1010.61 1011.48 1012.38 1013.26 1014.08 1014.83 1015.48 1016.03 1016.50 1016.89 1017.24 1017.57 1017.90 1018.27 1018.66 1019.09 1019.54 1019.98 1020.38 1020.73 1020.99 1021.15 1021.22 1021.20 1021.12 1020.99 1020.85 1020.70 1020.56 1020.43 1020.31 1020.19 1020.05 1019.90 1019.71 1019.49
1007.19 1007.10 1007.16 1007.38 1007.77 1008.33 1009.03 1009.85 1010.76 1011.71 1012.66 1013.58 1014.42 1015.17 1015.82 1016.37 1016.83 1017.21 1017.56 1017.89 1018.23 1018.58 1018.96 1019.36 1019.75 1020.12 1020.44 1020.69 1020.86 1020.94 1020.95 1020.89 1020.79 1020.67 1020.53 1020.41 1020.29 1020.18 1020.07 1019.94 1019.79 1019.62 1019.41
1006.76 1006.63 1006.65 1006.83 1007.19 1007.71 1008.39 1009.20 1010.11 1011.08 1012.07 1013.04 1013.96 1014.80 1015.53 1016.16 1016.68 1017.12 1017.49 1017.82 1018.14 1018.46 1018.79 1019.14 1019.48 1019.81 1020.10 1020.34 1020.51 1020.61 1020.63 1020.60 1020.53 1020.43 1020.31 1020.20 1020.09 1019.98 1019.87 1019.74 1019.60 1019.42 1019.22
1006.46 1006.33 1006.34 1006.50 1006.83 1007.32 1007.96 1008.74 1009.62 1010.59 1011.59 1012.60 1013.56 1014.46 1015.26 1015.95 1016.53 1017.01 1017.41 1017.75 1018.05 1018.35 1018.64 1018.93 1019.23 1019.52 1019.78 1019.99 1020.16 1020.26 1020.31 1020.29 1020.24 1020.16 1020.06 1019.95 1019.84 1019.73 1019.61 1019.47 1019.31 1019.12 1018.90
1006.35 1006.25 1006.29 1006.45 1006.76 1007.22 1007.82 1008.56 1009.40 1010.34 1011.33 1012.33 1013.31 1014.24 1015.08 1015.82 1016.45 1016.96 1017.38 1017.73 1018.02 1018.29 1018.54 1018.79 1019.04 1019.28 1019.50 1019.69 1019.84 1019.93 1019.98 1019.98 1019.94 1019.87 1019.78 1019.67 1019.56 1019.43 1019.28 1019.12 1018.93 1018.70 1018.45
Thickness
5757 5757 5758 5758 5758 5758 5758 5757 5756 5756 5756 5756 5756 5755 5755 5754 5753 5752 5752 5751 5751 5750 5749 5747 5746 5744 5743 5741 5740 5738 5737 5736 5734 5733 5732 5730 5729 5728 5727 5725 5724 5722 5721
5756 5756 5757 5757 5757 5757 5757 5757 5756 5756 5755 5755 5755 5755 5754 5754 5753 5752 5752 5751 5751 5750 5749 5747 5746 5744 5743 5741 5740 5738 5737 5736 5734 5733 5732 5730 5729 5727 5726 5725 5723 5722 5720
5756 5756 5756 5757 5757 5757 5757 5756 5755 5755 5755 5754 5753 5754 5754 5754 5753 5752 5752 5751 5751 5750 5749 5747 5746 5744 5743 5741 5740 5739 5737 5735 5734 5733 5731 5730 5729 5727 5725 5724 5722 5721 5719
5756 5756 5756 5756 5756 5756 5755 5755 5754 5753 5753 5752 5752 5752 5753 5753 5752 5752 5751 5750 5750 5749 5748 5747 5745 5744 5743 5741 5740 5738 5737 5735 5734 5732 5731 5730 5728 5727 5725 5723 5722 5720 5719
5757 5756 5756 5755 5755 5754 5754 5754 5753 5752 5750 5750 5750 5751 5751 5751 5751 5751 5750 5749 5749 5748 5747 5746 5744 5743 5742 5741 5740 5738 5737 5735 5733 5732 5731 5729 5728 5726 5725 5723 5721 5720 5718
5757 5756 5756 5755 5754 5753 5752 5751 5750 5750 5749 5748 5749 5748 5749 5750 5750 5750 5749 5748 5748 5746 5746 5744 5743 5742 5742 5741 5740 5738 5737 5735 5734 5732 5731 5729 5728 5726 5725 5723 5721 5719 5718
5757 5756 5756 5755 5753 5752 5751 5750 5749 5747 5746 5747 5745 5743 5746 5748 5749 5749 5748 5747 5746 5746 5745 5744 5743 5742 5741 5740 5739 5738 5737 5736 5734 5733 5731 5729 5728 5726 5724 5722 5720 5719 5717
5757 5756 5755 5754 5753 5752 5750 5749 5748 5746 5745 5745 5742 5739 5737 5739 5744 5746 5746 5745 5745 5744 5743 5742 5742 5741 5740 5739 5739 5738 5737 5736 5735 5733 5731 5729 5728 5726 5724 5722 5720 5718 5716
5756 5755 5755 5754 5752 5751 5750 5749 5748 5745 5742 5742 5742 5739 5734 5731 5735 5740 5742 5743 5742 5742 5741 5741 5740 5740 5739 5738 5738 5738 5737 5736 5734 5733 5731 5729 5727 5725 5723 5721 5719 5717 5715
5755 5754 5753 5753 5751 5750 5749 5748 5747 5745 5743 5740 5740 5740 5739 5738 5732 5731 5735 5738 5740 5740 5739 5739 5739 5738 5737 5737 5737 5736 5735 5734 5733 5732 5730 5729 5727 5725 5723 5720 5718 5716 5715
5753 5753 5753 5752 5750 5749 5748 5747 5746 5744 5743 5740 5739 5738 5736 5735 5734 5729 5727 5731 5734 5736 5737 5737 5737 5736 5736 5735 5735 5734 5733 5732 5731 5730 5729 5727 5726 5724 5721 5720 5718 5716 5714
5751 5751 5750 5750 5749 5748 5747 5746 5745 5743 5741 5739 5738 5736 5735 5733 5731 5729 5726 5727 5728 5732 5733 5734 5734 5734 5733 5733 5732 5732 5731 5730 5728 5727 5726 5725 5724 5722 5720 5718 5716 5714 5712
5747 5748 5747 5747 5747 5746 5746 5745 5743 5740 5739 5738 5736 5735 5734 5734 5733 5731 5727 5725 5725 5727 5729 5731 5731 5731 5730 5730 5729 5729 5728 5727 5726 5725 5724 5722 5721 5720 5718 5716 5714 5713 5711
5746 5746 5745 5745 5745 5744 5743 5742 5740 5738 5737 5736 5735 5734 5733 5732 5732 5730 5727 5724 5720 5721 5723 5726 5728 5728 5727 5727 5727 5726 5725 5724 5723 5722 5721 5720 5719 5717 5715 5714 5712 5710 5709
5745 5744 5743 5742 5742 5741 5740 5739 5737 5735 5734 5733 5732 5731 5730 5730 5729 5729 5727 5725 5720 5716 5718 5721 5723 5725 5724 5723 5723 5722 5722 5722 5721 5719 5718 5716 5715 5714 5712 5711 5709 5708 5706
5742 5741 5740 5739 5738 5737 5736 5735 5733 5732 5731 5729 5728 5728 5727 5726 5725 5725 5723 5722 5720 5717 5714 5717 5718 5720 5720 5720 5719 5719 5719 5718 5717 5716 5714 5713 5711 5710 5709 5708 5706 5705 5703
5738 5738 5737 5735 5734 5733 5732 5731 5730 5728 5727 5726 5725 5724 5723 5722 5721 5720 5719 5718 5717 5715 5712 5713 5714 5715 5715 5715 5715 5715 5714 5714 5713 5712 5711 5710 5708 5707 5705 5704 5703 5701 5699
5734 5734 5733 5731 5730 5729 5729 5727 5726 5725 5723 5722 5721 5720 5719 5718 5717 5716 5715 5714 5713 5712 5709 5707 5708 5709 5710 5711 5711 5710 5710 5710 5709 5708 5707 5705 5704 5703 5701 5700 5699 5697 5695
5731 5730 5728 5726 5726 5725 5724 5723 5722 5720 5719 5718 5717 5715 5715 5714 5712 5711 5711 5710 5709 5708 5706 5704 5704 5704 5705 5706 5705 5706 5706 5705 5704 5704 5702 5701 5700 5698 5697 5696 5695 5693 5691
5726 5725 5724 5722 5721 5720 5719 5718 5717 5715 5714 5713 5712 5711 5711 5710 5709 5708 5707 5706 5704 5702 5700 5699 5698 5698 5698 5699 5699 5699 5698 5698 5698 5698 5697 5696 5695 5693 5692 5691 5690 5688 5686
5722 5720 5719 5717 5716 5715 5714 5713 5711 5710 5708 5707 5707 5707 5706 5706 5705 5704 5703 5701 5699 5696 5695 5693 5693 5692 5692 5692 5693 5693 5691 5691 5691 5691 5690 5690 5689 5687 5686 5685 5684 5683 5682
5716 5714 5713 5712 5710 5710 5709 5708 5706 5703 5702 5701 5700 5700 5700 5700 5699 5698 5698 5697 5695 5692 5690 5688 5687 5687 5687 5688 5687 5685 5684 5682 5683 5684 5682 5682 5681 5680 5680 5679 5679 5678 5676
5710 5708 5706 5705 5704 5703 5702 5701 5700 5698 5696 5694 5694 5693 5694 5694 5693 5692 5691 5690 5689 5688 5687 5684 5682 5682 5682 5682 5680 5678 5676 5675 5676 5676 5674 5674 5674 5673 5673 5673 5673 5671 5670
5702 5701 5700 5698 5697 5696 5695 5694 5693 5691 5689 5688 5687 5686 5686 5685 5685 5684 5684 5683 5682 5681 5680 5679 5678 5677 5677 5676 5673 5672 5670 5668 5668 5667 5666 5665 5666 5665 5666 5666 5666 5665 5664
5694 5693 5692 5691 5689 5688 5687 5686 5685 5683 5681 5680 5679 5679 5678 5678 5677 5677 5676 5675 5674 5674 5673 5672 5671 5670 5669 5668 5666 5664 5662 5659 5659 5658 5656 5655 5656 5656 5657 5657 5658 5657 5656
5687 5686 5684 5683 5681 5680 5679 5677 5677 5675 5673 5672 5672 5671 5670 5670 5669 5668 5668 5667 5665 5665 5665 5664 5663 5661 5660 5658 5657 5655 5653 5650 5649 5648 5648 5645 5646 5644 5645 5648 5647 5647 5646